Hurricane Symbol View the latest observations near Atlantic Tropical Storm Alberto.

Station 46066 (LLNR 984.1) - SOUTH KODIAK - 310NM SSW of Kodiak, AK Image indicating link to RSS feed of recent meteorological observations for station 46066


Conditions at 46066 as of
(4:10 am HAST)
1410 GMT on 06/20/2024:
     

Click on the graph icon in the table below to see a time series plot of the last five days of that observation.

5-day plot - Wind Direction Wind Direction (WDIR): E ( 90 deg true )
5-day plot - Wind Speed Wind Speed (WSPD): 17.5 kts
5-day plot - Wind Gust Wind Gust (GST): 21.4 kts
5-day plot - Atmospheric Pressure Atmospheric Pressure (PRES):29.74 in
5-day plot - Air Temperature Air Temperature (ATMP): 46.8 °F
5-day plot - Water Temperature Water Temperature (WTMP): 47.3 °F
5-day plot - Dew Point Dew Point (DEWP): 45.1 °F
5-day plot - Wind Chill Wind Chill (CHILL): 39.4 °F
5-day plot - Wind Speed at 10 Meters Wind Speed at 10 meters (WSPD10M): 19.4 kts
5-day plot - Wind Speed at 20 Meters Wind Speed at 20 meters (WSPD20M): 19.4 kts
5-day plot -  Wind Speed, Wind Gust and Atmospheric Pressure Combined plot of Wind Speed, Gust, and Air Pressure
Supplemental Measurements
Highest 1-minute Wind Speed
Time (HAST)5-day plot - 1-Minute Wind Speed WSPD 5-day plot - 1-Minute Wind Direction WDIR
4:07 am 19.4 kts-
Previous observations
TIME
(HAST)
5-day plot - Wind Direction
WDIR
 
5-day plot - Wind Speed
WSPD
kts
5-day plot - Wind Gust
GST
kts
5-day plot - Wave Height
WVHT
ft
5-day plot - Dominant Wave Period
DPD
sec
5-day plot - Average Wave Period
APD
sec
5-day plot - Mean Wave Direction
MWD
 
5-day plot - Atmospheric Pressure
PRES
in
5-day plot - Pressure Tendency
PTDY
in
5-day plot - Air Temperature
ATMP
°F
5-day plot - Water Temperature
WTMP
°F
5-day plot - Dew Point
DEWP
°F
5-day plot - Salinity
SAL
psu
5-day plot - Visibility
VIS
nmi
5-day plot - Tide (above MLLW)
TIDE
ft
2024-06-20 04:00 am E 17.5 21.4----29.74-0.06 46.8 47.3 45.1---
2024-06-20 03:50 am E 17.5 21.4 4.9 75.0 SE29.74- 46.8 47.3 45.1---
2024-06-20 03:40 am E 17.5 21.4 4.9-5.0 SE29.75- 46.8 47.3 45.1---
2024-06-20 03:30 am E 17.5 21.4----29.75- 46.6 47.3 44.8---
2024-06-20 03:20 am E 15.5 19.4 4.6 85.1 SE29.75- 46.8 47.3 45.0---
2024-06-20 03:10 am E 15.5 19.4 4.6-5.1 SE29.78- 46.8 47.3 45.0---
2024-06-20 03:00 am E 17.5 19.4----29.77-0.07 46.6 47.3 45.0---
2024-06-20 02:50 am E 15.5 21.4 4.9 75.2SSE29.76- 46.8 47.5 45.1---
2024-06-20 02:40 am E 15.5 19.4 4.9-5.2SSE29.77- 46.6 47.5 45.0---
2024-06-20 02:30 am E 15.5 21.4----29.77- 46.8 47.5 45.0---
2024-06-20 02:20 am E 15.5 19.4 4.3 85.2 SE29.78- 46.6 47.5 45.0---
2024-06-20 02:10 am E 15.5 19.4 4.3-5.2 SE29.78- 46.6 47.5 45.0---
2024-06-20 02:00 am E 15.5 17.5----29.78-0.07 46.6 47.5 45.0---
2024-06-20 01:50 am E 15.5 17.5 4.6 85.5 SE29.79- 46.8 47.5 45.1---
2024-06-20 01:40 am E 13.6 17.5 4.6-5.5 SE29.80- 46.8 47.5 45.0---
2024-06-20 01:30 amESE 15.5 17.5----29.80- 46.8 47.5 45.0---
2024-06-20 01:20 am E 13.6 17.5 4.6 85.5ESE29.80- 46.8 47.5 45.0---
2024-06-20 01:10 am E 15.5 19.4 4.6-5.5ESE29.80- 46.8 47.7 45.0---
2024-06-20 01:00 am E 13.6 17.5----29.80-0.07 46.8 47.7 45.0---
2024-06-20 12:50 amESE 13.6 17.5 4.3 85.4 SE29.81- 46.9 47.7 45.1---
2024-06-20 12:40 amESE 13.6 17.5 4.3-5.4 SE29.82- 46.9 47.7 45.0---
2024-06-20 12:30 amESE 13.6 17.5----29.83- 46.9 47.8 45.0---
2024-06-20 12:20 amESE 13.6 17.5 4.6 75.6 SE29.83- 46.9- 45.0---
2024-06-20 12:10 amESE 13.6 17.5 4.6-5.6 SE29.83- 46.8 47.8 44.8---
2024-06-20 12:00 amESE 13.6 17.5----29.83-0.05 46.8 47.8 45.0---
2024-06-19 11:50 pm E 13.6 15.5 4.3 95.8ESE29.83- 46.8 47.8 45.0---
2024-06-19 11:40 pmESE 13.6 15.5 4.3-5.8ESE29.83- 46.8 48.0 45.0---
2024-06-19 11:30 pm E 13.6 15.5----29.83- 46.6 48.0 44.8---
2024-06-19 11:20 pmESE 11.7 15.5 3.9 85.5ESE29.83- 46.8 48.0 45.0---
2024-06-19 11:10 pmESE 13.6 15.5 3.9-5.5ESE29.84- 46.4 48.0 44.8---
2024-06-19 11:00 pmESE 11.7 15.5----29.85-0.03 46.2 48.0 44.6---
2024-06-19 10:50 pmESE 13.6 15.5 4.3 145.9 S29.85- 46.2 48.0 44.6---
2024-06-19 10:40 pmESE 13.6 17.5 4.3-5.9 S29.86- 46.2 48.0 44.6---
2024-06-19 10:30 pmESE 13.6 15.5----29.86- 46.2 48.0 44.4---
2024-06-19 10:20 pmESE 13.6 17.5 3.9 85.7 SE29.86- 46.4 48.0 44.4---
2024-06-19 10:10 pmESE 13.6 17.5 3.9-5.7 SE29.87- 46.6 48.0 44.4---
2024-06-19 10:00 pmESE 13.6 17.5----29.87-0.02 46.8 48.0 44.6---
2024-06-19 09:50 pmESE 13.6 17.5 4.3 85.9ESE29.87- 46.9 48.0 44.8---
2024-06-19 09:40 pmESE 13.6 15.5 4.3-5.9ESE29.87- 47.1 48.0 45.0---
2024-06-19 09:30 pmESE 13.6 15.5----29.87- 47.1 48.0 44.8---
2024-06-19 09:20 pmESE 11.7 15.5 4.3 86.0 SE29.87- 47.1 48.2 44.8---
2024-06-19 09:10 pmESE 11.7 13.6 4.3-6.0 SE29.88- 47.1 48.2 44.8---
2024-06-19 09:00 pmESE 11.7 13.6----29.88-0.02 47.1 48.2 44.8---
2024-06-19 08:50 pmESE 11.7 13.6 4.3 156.4 S29.88- 47.1 48.2 44.8---
2024-06-19 08:40 pmESE 11.7 13.6 4.3-6.4 S29.88- 47.1 48.4 44.8---
2024-06-19 08:30 pmESE 11.7 13.6----29.88- 47.1 48.4 44.8---
2024-06-19 08:20 pmESE 11.7 13.6 4.6 146.6 S29.88- 47.1 48.4 44.8---
2024-06-19 08:10 pmESE 11.7 13.6----29.88- 47.1 48.4 44.8---
2024-06-19 08:00 pmESE 9.7 13.6----29.88-0.04 47.1 48.4 44.6---
2024-06-19 07:50 pmESE 11.7 13.6 4.6 86.5ESE29.88- 47.1 48.4 44.6---
2024-06-19 07:40 pmESE 9.7 11.7 4.6-6.5ESE29.88- 46.9 48.4 44.4---
2024-06-19 07:30 pmESE 9.7 13.6----29.89- 46.9 48.6 44.6---
2024-06-19 07:20 pmESE 9.7 11.7 4.3 86.5 SE29.89- 47.1 48.6 44.8---
2024-06-19 07:10 pmESE 9.7 11.7 4.3-6.5 SE29.89- 47.1 48.6 44.8---
2024-06-19 07:00 pmESE 9.7 11.7----29.89-0.03 47.1 48.6 44.6---
2024-06-19 06:50 pmESE 9.7 11.7 4.6 86.8ESE29.89- 47.1 48.6 44.6---
2024-06-19 06:40 pmESE 9.7 11.7 4.6-6.8ESE29.89- 47.1 48.6 44.6---
2024-06-19 06:30 pmESE 9.7 11.7----29.89- 47.1 48.6 44.4---
2024-06-19 06:20 pmESE 7.8 11.7 4.6 146.9 S29.89- 47.1 48.6 44.4---
2024-06-19 06:10 pmESE 7.8 9.7 4.6-6.9 S29.90- 46.9 48.6 44.2---
2024-06-19 06:00 pmESE 7.8 9.7----29.90-0.02 46.8 48.6 44.1---
2024-06-19 05:50 pmESE 7.8 9.7 4.6 86.8ESE29.90- 46.8 48.4 43.9---
2024-06-19 05:40 pmESE 7.8 9.7 4.6-6.8ESE29.91- 46.8 48.4 43.9---
2024-06-19 05:30 pmESE 7.8 9.7----29.91- 46.8 48.6 44.1---
2024-06-19 05:20 pmESE 5.8 7.8 4.3 156.8SSW29.91- 46.6 48.6 44.1---
2024-06-19 05:10 pm SE 5.8 7.8 4.3-6.8SSW29.91- 46.6 48.6 44.2---
2024-06-19 05:00 pm SE 5.8 7.8----29.91-0.01 46.4 48.6 43.9---
2024-06-19 04:50 pm SE 5.8 9.7 4.9 87.0ESE29.91- 46.4 48.4 43.7---
2024-06-19 04:40 pm SE 5.8 7.8 4.9-7.0ESE29.91- 46.6 48.4 44.1---
2024-06-19 04:30 pm SE 5.8 9.7----29.91- 46.8 48.6 44.1---
2024-06-19 04:20 pmESE 5.8 7.8 4.9 86.9ESE29.91- 46.8 48.6 43.9---
2024-06-19 04:10 pmESE 3.9 5.8 4.9-6.9ESE29.91- 46.8 48.6 43.9---
2024-06-19 04:00 pmESE 3.9 5.8----29.91+0.00 46.9 48.6 43.7---
2024-06-19 03:50 pm SE 3.9 5.8 4.9 96.8 SE29.91- 46.9 48.4 43.7---
2024-06-19 03:40 pmESE 5.8 7.8 4.9-6.8 SE29.91- 46.8 48.4 43.5---
2024-06-19 03:30 pm SE 3.9 7.8----29.92- 46.8 48.4 43.5---
2024-06-19 03:20 pm SE 3.9 7.8 5.6 97.1 SE29.91- 46.8- 43.7---
2024-06-19 03:10 pmSSE 3.9 5.8----29.92- 46.8 48.4 43.9---
2024-06-19 03:00 pmSSE 1.9 5.8----29.92+0.00 46.6 48.4 43.9---
2024-06-19 02:50 pmSSE 3.9 5.8 4.6 86.7ESE29.92- 46.8 48.2 44.2---
2024-06-19 02:40 pmSSE 3.9 7.8 4.6-6.7ESE29.92- 46.8 48.2 44.1---
2024-06-19 02:30 pmSSE 5.8 5.8----29.92- 46.8 48.0 44.2---
2024-06-19 02:20 pm S 3.9 7.8 4.9 86.6 SE29.92- 46.8 48.2 44.2---
2024-06-19 02:10 pmSSE 3.9 5.8 4.9-6.6 SE29.92- 46.8 48.2 44.4---
2024-06-19 02:00 pm S 5.8 7.8----29.92+0.00 46.6 48.2 44.2---
2024-06-19 01:50 pm S 7.8 7.8 5.2 86.9 SE29.92- 46.6 48.2 44.1---
2024-06-19 01:40 pm S 5.8 7.8 5.2-6.9 SE29.92- 46.8 48.2 44.2---
2024-06-19 01:10 pm S 5.8 7.8 4.9-6.7ESE29.92- 46.6 47.8 44.1---
2024-06-19 01:00 pmSSE 5.8 7.8----29.92+0.00 46.6 47.8 44.2---
2024-06-19 12:50 pmSSE 5.8 9.7 5.2 87.1ESE29.92- 46.6 47.8 44.2---
2024-06-19 12:40 pmSSE 7.8 9.7 5.2-7.1ESE29.92- 46.6 47.8 44.1---
2024-06-19 12:30 pmSSE 7.8 9.7----29.91- 46.6 47.8 44.1---
2024-06-19 12:20 pmSSE 9.7 11.7 4.9 86.8ESE29.92- 46.4 47.7 43.9---
2024-06-19 12:10 pmSSE 9.7 11.7 4.9-6.8ESE29.92- 46.6 47.7 44.2---
2024-06-19 12:00 pm S 7.8 9.7----29.92+0.02 46.4 47.7 43.9---
2024-06-19 11:50 amSSE 5.8 9.7 4.6 147.2SSW29.92- 46.4 47.8 44.1---
2024-06-19 11:40 amSSE 5.8 7.8 4.6-7.2SSW29.92- 46.2 47.7 43.9---
2024-06-19 11:30 amSSE 5.8 7.8----29.92- 46.2 47.7 44.1---
2024-06-19 11:20 am S 5.8 7.8 5.2 87.3ESE29.92- 46.4 47.8 44.4---
2024-06-19 11:10 amSSE 5.8 7.8 5.2-7.3ESE29.92- 46.2 47.7 44.2---
2024-06-19 11:00 am S 5.8 7.8----29.91+0.00 46.0 47.7 44.2---
2024-06-19 10:50 am S 5.8 7.8 4.6 156.9 S29.91- 46.0 47.7 44.4---
2024-06-19 10:40 am S 5.8 5.8 4.6-6.9 S29.91- 45.9 47.7 44.4---
2024-06-19 10:30 am S 5.8 7.8----29.91- 45.9 47.7 44.6---
2024-06-19 10:20 amSSE 5.8 7.8 4.9 97.0 SE29.91- 45.9 47.7 44.6---
2024-06-19 10:10 amSSE 3.9 5.8 4.9-7.0 SE29.91- 46.0 47.7 45.0---
2024-06-19 10:00 amSSE 3.9 5.8----29.91+0.01 45.9 47.7 44.8---
2024-06-19 09:50 am SE 3.9 5.8 4.9 86.7 SE29.91- 45.9 47.7 44.8---
2024-06-19 09:40 am SE 3.9 5.8 4.9-6.7 SE29.91- 45.7 47.7 44.8---
2024-06-19 09:30 amSSE 3.9 5.8----29.91- 45.7 47.7 44.8---
2024-06-19 09:20 amSSE 3.9 5.8 4.9 86.9ESE29.91- 45.7 47.7 44.8---
2024-06-19 09:10 am S 3.9 5.8 4.9-6.9ESE29.90- 45.5 47.7 44.6---
2024-06-19 09:00 amSSE 3.9 5.8----29.91+0.00 45.5 47.7 44.8---
2024-06-19 08:50 am S 5.8 7.8 5.2 77.0 SE29.91- 45.7 47.5 45.0---
2024-06-19 08:40 am S 5.8 7.8----29.91- 45.7 47.5 45.0---
2024-06-19 08:30 am S 7.8 9.7----29.91- 45.7 47.5 45.0---
2024-06-19 08:20 am S 7.8 9.7 5.2 97.0ESE29.91- 45.9 47.5 45.0---
2024-06-19 08:10 am S 7.8 9.7 5.2-7.0ESE29.91- 46.2 47.5 45.3---
2024-06-19 08:00 amSSE 7.8 9.7----29.91+0.01 46.2 47.5 45.3---
2024-06-19 07:50 amSSE 7.8 9.7 5.2 97.2ESE29.91- 46.2 47.5 45.3---
2024-06-19 07:40 amSSE 5.8 7.8 5.2-7.2ESE29.91- 46.0 47.5 45.1---
2024-06-19 07:30 amSSE 5.8 9.7----29.90- 46.2 47.5 45.3---
2024-06-19 07:20 am SE 5.8 7.8 5.2 97.0ESE29.90- 46.0 47.5 45.1---
2024-06-19 07:10 am SE 5.8 7.8 5.2-7.0ESE29.90- 46.0 47.5 45.1---
2024-06-19 07:00 am SE 5.8 7.8----29.90+0.01 46.0 47.5 45.1---
2024-06-19 06:50 am SE 3.9 7.8 5.6 87.0 SE29.90- 46.2 47.5 45.3---
2024-06-19 06:40 amESE 3.9 5.8 5.6-7.0 SE29.90- 46.0 47.5 45.1---
2024-06-19 06:30 amESE 3.9 7.8----29.90- 46.2 47.5 45.3---
2024-06-19 06:20 am SE 5.8 5.8 5.2 87.0 SE29.90- 46.2 47.5 45.3---
2024-06-19 06:10 am SE 3.9 5.8 5.2-7.0 SE29.90- 46.2 47.5 45.1---
2024-06-19 06:00 amSSE 3.9 5.8----29.90+0.02 46.4 47.5 45.3---
2024-06-19 05:50 amSSE 3.9 5.8 5.6 97.0ESE29.90- 46.4 47.5 45.3---
2024-06-19 05:40 amSSE 1.9 5.8 5.6-7.0ESE29.90- 46.4 47.7 45.1---
2024-06-19 05:30 am SE 3.9 5.8----29.90- 46.4 47.7 45.1---
2024-06-19 05:20 amSSE 3.9 7.8 6.2 97.1 SE29.90- 46.6 47.7 45.1---
2024-06-19 05:10 amSSE 3.9 5.8 6.2-7.1 SE29.90- 46.6 47.7 45.3---
2024-06-19 05:00 amSSE 3.9 5.8----29.90+0.02 46.6 47.7 45.3---
2024-06-19 04:50 am SE 3.9 5.8 6.6 87.2 SE29.90- 46.6 47.7 45.3---
2024-06-19 04:40 am SE 1.9 5.8 6.6-7.2 SE29.90- 46.6 47.7 45.3---
2024-06-19 04:30 amSSE 3.9 7.8----29.90- 46.6 47.7 45.3---
2024-06-19 04:20 amSSE 1.9 5.8 5.6 96.9 SE29.90- 46.6 47.7 45.3---
2024-06-19 04:10 amSSE 1.9 3.9 5.6-6.9 SE29.89- 46.4 47.7 45.3---
2024-06-19 04:00 amSSE 1.9 3.9----29.89+0.01 46.4 47.7 45.3---
2024-06-19 03:50 am- 0.0 1.9 6.6 97.0 SE29.89- 46.4 47.5 45.5---

Detailed Wave Summary
for 46066 as of (3:40 am HAST)
1340 GMT on 06/20/2024:

These wave data are displayed in rounded times.

     

Click on the graph icon in the table below to see a time series plot of the last five days of that observation.

5-day plot - Significant Wave Height Significant Wave Height (WVHT): 4.9 ft
5-day plot - Swell Height Swell Height (SwH): 3.0 ft
5-day plot - Swell Period Swell Period (SwP): 8.3 sec
5-day plot - Swell Direction Swell Direction (SwD): SE
5-day plot - Wind Wave Height Wind Wave Height (WWH): 3.9 ft
5-day plot - Wind Wave Period Wind Wave Period (WWP): 7.1 sec
5-day plot - Wind Wave Direction Wind Wave Direction (WWD): SE
5-day plot - Wave Steepness Wave Steepness (STEEPNESS): STEEP
5-day plot - Average Wave Period Average Wave Period (APD): 5.0 sec
Previous observations
TIME
(HAST)
5-day plot - Wave Height
WVHT
ft
5-day plot - Swell Height
SwH
ft
5-day plot - Swell Period
SwP
sec
5-day plot - Swell Direction
SwD
 
5-day plot - Wind Wave Height
WWH
ft
5-day plot - Wind Wave Period
WWP
sec
5-day plot - Wind Wave Direction
WWD
 
5-day plot - Wave Steepness
STEEPNESS
 
5-day plot - Average Wave Period
APD
sec
2024-06-20 03:10 am 4.6 3.3 8.3 SE 3.6 6.7 SE AVERAGE 5.1
2024-06-20 02:40 am 4.9 3.6 7.1SSE 3.6 4.5 E STEEP 5.2
2024-06-20 02:10 am 4.3 3.3 7.7 SE 3.0 4.2 E AVERAGE 5.2
2024-06-20 01:40 am 4.6 3.6 8.3 SE 3.0 3.6 ESE AVERAGE 5.5
2024-06-20 01:10 am 4.6 3.6 8.3ESE 2.6 3.8 E AVERAGE 5.5
2024-06-20 12:40 am 4.3 3.3 8.3 SE 2.6 6.2 ESE AVERAGE 5.4
2024-06-20 12:10 am 4.6 3.6 7.1 SE 2.6 3.6 ESE STEEP 5.6
2024-06-19 11:40 pm 4.3 3.6 9.1ESE 2.3 5.6 E SWELL 5.8
2024-06-19 11:10 pm 3.9 3.3 7.7ESE 2.3 3.4 E AVERAGE 5.5
2024-06-19 10:40 pm 4.3 3.6 13.8 S 2.0 5.6 ESE SWELL 5.9
2024-06-19 10:10 pm 3.9 3.3 7.7 SE 2.3 5.9 ESE AVERAGE 5.7
2024-06-19 09:40 pm 4.3 3.9 8.3ESE 2.0 5.0 ESE AVERAGE 5.9
2024-06-19 09:10 pm 4.3 3.6 8.3 SE 2.0 5.3 E AVERAGE 6.0
2024-06-19 08:40 pm 4.3 3.9 14.8 S 1.6 5.3 E SWELL 6.4
2024-06-19 08:10 pm 4.6 4.3 13.8 S 1.6 5.0 E SWELL 6.6
2024-06-19 07:40 pm 4.6 4.3 8.3ESE 1.6 3.2 E AVERAGE 6.5
2024-06-19 07:10 pm 4.3 3.9 8.3 SE 1.3 4.3 ENE AVERAGE 6.5
2024-06-19 06:40 pm 4.6 4.6 8.3ESE 1.3 4.5 E AVERAGE 6.8
2024-06-19 06:10 pm 4.6 4.6 13.8 S 1.0 3.7 E SWELL 6.9
2024-06-19 05:40 pm 4.6 4.3 7.7ESE 1.0 4.0 E AVERAGE 6.8
2024-06-19 05:10 pm 4.3 4.3 14.8SSW 1.0 3.3 ENE SWELL 6.8
2024-06-19 04:40 pm 4.9 4.9 7.7ESE 1.0 3.4 E AVERAGE 7.0
2024-06-19 04:10 pm 4.9 4.6 8.3ESE 1.0 3.8 ESE AVERAGE 6.9
2024-06-19 03:40 pm 4.9 4.9 9.1 SE 1.0 3.7 ESE AVERAGE 6.8
2024-06-19 03:10 pm 5.6 5.6 9.1 SE 1.0 4.0 E AVERAGE 7.1
2024-06-19 02:40 pm 4.6 4.6 8.3ESE 1.0 3.7 SE AVERAGE 6.7
2024-06-19 02:10 pm 4.9 4.6 8.3 SE 1.0 3.8 SE AVERAGE 6.6
2024-06-19 01:40 pm 5.2 4.9 8.3 SE 1.0 3.7 SSE AVERAGE 6.9
2024-06-19 01:10 pm 4.9 4.6 9.1ESE 1.3 4.0 SE AVERAGE 6.7
2024-06-19 12:40 pm 5.2 4.9 8.3ESE 1.0 3.2 S AVERAGE 7.1
2024-06-19 12:10 pm 4.9 4.6 8.3ESE 1.3 4.0 ESE AVERAGE 6.8
2024-06-19 11:40 am 4.6 4.6 13.8SSW 1.0 3.8 SE SWELL 7.2
2024-06-19 11:10 am 5.2 5.2 8.3ESE 1.0 3.8 E AVERAGE 7.3
2024-06-19 10:40 am 4.6 4.6 14.8 S 1.0 3.8 ENE SWELL 6.9
2024-06-19 10:10 am 4.9 4.9 9.1 SE 1.0 4.0 E AVERAGE 7.0
2024-06-19 09:40 am 4.9 4.9 7.7 SE 1.0 3.8 ESE AVERAGE 6.7
2024-06-19 09:10 am 4.9 4.9 8.3ESE 1.0 4.0 E AVERAGE 6.9
2024-06-19 08:40 am 5.2 5.2 7.1 SE 1.0 3.7 E STEEP 7.0
2024-06-19 08:10 am 5.2 5.2 9.1ESE 1.0 3.6 ENE AVERAGE 7.0
2024-06-19 07:40 am 5.2 5.2 9.1ESE 1.0 3.3 ENE AVERAGE 7.2
2024-06-19 07:10 am 5.2 5.2 9.1ESE 1.3 3.8 E AVERAGE 7.0
2024-06-19 06:40 am 5.6 5.2 8.3 SE 1.0 4.0 E AVERAGE 7.0
2024-06-19 06:10 am 5.2 5.2 8.3 SE 1.0 3.4 ESE AVERAGE 7.0
2024-06-19 05:40 am 5.6 5.6 9.1ESE 1.0 3.1 E AVERAGE 7.0
2024-06-19 05:10 am 6.2 6.2 9.1 SE 1.3 4.0 E AVERAGE 7.1
2024-06-19 04:40 am 6.6 6.2 8.3 SE 1.3 4.0 ESE AVERAGE 7.2
2024-06-19 04:10 am 5.6 5.6 9.1 SE 1.3 4.0 SE AVERAGE 6.9

Plot of wave energy versus frequency (and period)